Weather History for Branson, MO

Change the Weather History Date:

Friday, May 16, 2014

  Actual Average (KHRO) Record (KHRO)
Temperature  
Mean Temperature 50 °F 66 °F  
Max Temperature 64 °F 76 °F 90 °F (1928)
Min Temperature 35 °F 55 °F 35 °F (1912)
Degree Days  
Heating Degree Days 16 2  
Month to date heating degree days 54  
Since 1 July heating degree days 3975  
Cooling Degree Days 0 3  
Month to date cooling degree days 38  
Year to date cooling degree days 75  
Moisture  
Dew Point 36 °F    
Average Humidity 67    
Maximum Humidity 93    
Minimum Humidity 34    
Precipitation  
Precipitation 0.00 in 0.16 in 2.23 in (1910)
Month to date precipitation 2.61  
Year to date precipitation 15.92  
Snow  
Snow 0.00 in 0.00 in - ()
Month to date snowfall 0.0  
Since 1 July snowfall 11.5  
Snow Depth -    
Sea Level Pressure  
Sea Level Pressure 30.12 in    
Wind  
Wind Speed 3 mph (WSW)    
Max Wind Speed 12 mph    
Max Gust Speed -    
Visibility 10 miles    
Events Rain    
T = Trace of Precipitation, MM = Missing Value Source: NWS Daily Summary

Daily Weather History Graph

Daily Weather History Graph

Search for Another Location

Airport:

Trip Planner

Search our weather history database for the weather conditions in past years. The results will help you decide how hot, cold, wet, or windy it might be!

Date:

Astronomy

May. 16, 2014 Rise Set
Actual Time 6:05 AM CDT 8:13 PM CDT
Civil Twilight 5:36 AM CDT 8:42 PM CDT
Nautical Twilight 5:00 AM CDT 9:18 PM CDT
Astronomical Twilight 4:22 AM CDT 9:56 PM CDT
Moon 10:21 PM CDT (5/16) 7:47 AM CDT (5/16)
Length of Visible Light 15h 06m
Length of Day
14h 08m
Waning Gibbous, 95% of the Moon is Illuminated
May 16
Waning Gibbous
May 21
Last Quarter
May 28
New
Jun 5
First Quarter
Jun 12
Full

Hourly Weather History & Observations

Time (CDT) Temp. Windchill Dew Point Humidity Pressure Visibility Wind Dir Wind Speed Gust Speed Precip Events Conditions
12:15 AM 39.2 °F - 35.6 °F 87% 30.14 in 10.0 mi Calm Calm - N/A   Clear
12:35 AM 39.2 °F 35.9 °F 35.6 °F 87% 30.14 in 10.0 mi SW 4.6 mph - N/A   Clear
12:55 AM 39.2 °F 35.9 °F 35.6 °F 87% 30.14 in 10.0 mi SW 4.6 mph - N/A   Clear
1:15 AM 42.8 °F 39.3 °F 32.0 °F 66% 30.13 in 10.0 mi SW 5.8 mph - N/A   Clear
1:35 AM 44.6 °F 41.4 °F 32.0 °F 61% 30.12 in 10.0 mi SW 5.8 mph - N/A   Partly Cloudy
1:55 AM 44.6 °F 43.1 °F 32.0 °F 61% 30.12 in 10.0 mi SW 3.5 mph - N/A   Scattered Clouds
2:15 AM 41.0 °F 38.0 °F 32.0 °F 70% 30.11 in 10.0 mi SW 4.6 mph - N/A   Mostly Cloudy
2:35 AM 41.0 °F 39.0 °F 32.0 °F 70% 30.11 in 10.0 mi SW 3.5 mph - N/A   Mostly Cloudy
2:55 AM 41.0 °F 38.0 °F 32.0 °F 70% 30.11 in 10.0 mi SW 4.6 mph - N/A   Scattered Clouds
3:15 AM 41.0 °F 38.0 °F 32.0 °F 70% 30.11 in 10.0 mi SW 4.6 mph - N/A   Partly Cloudy
3:35 AM 41.0 °F 38.0 °F 32.0 °F 70% 30.11 in 10.0 mi SW 4.6 mph - N/A   Partly Cloudy
3:55 AM 39.2 °F 35.9 °F 32.0 °F 75% 30.11 in 10.0 mi SW 4.6 mph - N/A   Partly Cloudy
4:15 AM 39.2 °F 35.9 °F 32.0 °F 75% 30.11 in 10.0 mi SW 4.6 mph - N/A   Scattered Clouds
4:35 AM 39.2 °F 37.0 °F 32.0 °F 75% 30.11 in 10.0 mi SW 3.5 mph - N/A   Scattered Clouds
4:55 AM 39.2 °F 37.0 °F 32.0 °F 75% 30.11 in 10.0 mi SSW 3.5 mph - N/A   Mostly Cloudy
5:15 AM 37.4 °F - 32.0 °F 81% 30.11 in 10.0 mi Calm Calm - N/A   Scattered Clouds
5:35 AM 37.4 °F 34.9 °F 32.0 °F 81% 30.11 in 10.0 mi SW 3.5 mph - N/A   Scattered Clouds
5:55 AM 37.4 °F - 32.0 °F 81% 30.11 in 10.0 mi Calm Calm - N/A   Partly Cloudy
6:15 AM 35.6 °F - 32.0 °F 87% 30.11 in 10.0 mi Calm Calm - N/A   Clear
6:35 AM 37.4 °F - 33.8 °F 87% 30.12 in 10.0 mi Calm Calm - N/A   Partly Cloudy
6:45 AM 37.4 °F - 35.6 °F 93% 30.12 in 10.0 mi Calm Calm - N/A   Partly Cloudy
7:45 AM 46.4 °F - 37.4 °F 71% 30.13 in 10.0 mi Calm Calm - N/A   Clear
8:45 AM 53.6 °F - 37.4 °F 54% 30.14 in 10.0 mi Calm Calm - N/A   Clear
10:50 AM 60.8 °F - 35.6 °F 39% 30.13 in 10.0 mi WNW 6.9 mph - N/A   Scattered Clouds
11:45 AM 59.0 °F - 35.6 °F 42% 30.13 in 10.0 mi WNW 6.9 mph - N/A   Scattered Clouds
12:45 PM 60.8 °F - 35.6 °F 39% 30.12 in 10.0 mi West 6.9 mph - N/A   Mostly Cloudy
1:52 PM 62.6 °F - 37.4 °F 39% 30.10 in 10.0 mi NW 11.5 mph - N/A   Overcast
2:46 PM 64.4 °F - 35.6 °F 34% 30.09 in 10.0 mi NW 9.2 mph - N/A   Overcast
3:46 PM 60.8 °F - 37.4 °F 42% 30.08 in 10.0 mi WNW 6.9 mph - N/A   Overcast
4:47 PM 59.0 °F - 37.4 °F 45% 30.09 in 10.0 mi NW 9.2 mph - N/A   Overcast
5:52 PM 55.4 °F - 42.8 °F 63% 30.09 in 10.0 mi North 6.9 mph - N/A   Overcast
6:54 PM 55.4 °F - 42.8 °F 63% 30.08 in 10.0 mi North 5.8 mph - N/A   Overcast
8:53 PM 50.0 °F - 39.2 °F 66% 30.11 in 10.0 mi NNE 4.6 mph - N/A   Overcast
9:15 PM 50.0 °F - 39.2 °F 66% 30.11 in 10.0 mi Calm Calm - N/A   Overcast
9:35 PM 50.0 °F - 39.2 °F 66% 30.13 in 10.0 mi Calm Calm - N/A   Overcast
9:55 PM 50.0 °F - 39.2 °F 66% 30.13 in 10.0 mi Calm Calm - N/A   Overcast
10:15 PM 50.0 °F - 39.2 °F 66% 30.13 in 10.0 mi Calm Calm - N/A   Overcast
10:35 PM 50.0 °F - 39.2 °F 66% 30.14 in 10.0 mi Calm Calm - N/A   Overcast
10:55 PM 50.0 °F - 39.2 °F 66% 30.16 in 10.0 mi Calm Calm - N/A   Overcast
11:15 PM 48.2 °F - 41.0 °F 76% 30.15 in 10.0 mi Calm Calm - N/A   Overcast
11:35 PM 48.2 °F - 41.0 °F 76% 30.16 in 10.0 mi Calm Calm - N/A   Overcast
11:55 PM 48.2 °F - 41.0 °F 76% 30.17 in 10.0 mi WNW 3.5 mph - N/A Rain Light Rain